Bangor, ME

11:20 PM EDT on October 20, 2019 (GMT -0400)
Bangor International

Weather History for KBGR - August, 2019

Change the Weather History Date:

Saturday, August 24, 2019

  Actual Average Record
Temperature  
Mean Temperature 61 °F 66 °F  
Max Temperature 71 °F 77 °F 91 °F (1948)
Min Temperature 50 °F 55 °F 38 °F (1945)
Degree Days  
Heating Degree Days 4 2  
Month to date heating degree days 5 27  
Since 1 June heating degree days 95 157  
Since 1 July heating degree days 5 50  
Cooling Degree Days 0 3  
Month to date cooling degree days 92 86  
Year to date cooling degree days 318 276  
Since 1 June cooling degree days 318 270  
Growing Degree Days 10 (Base 50)    
Moisture  
Dew Point 53 °F    
Average Humidity 79    
Maximum Humidity 100    
Minimum Humidity 57    
Precipitation  
Precipitation 0.00 in 0.09 in 1.65 in (1933)
Month to date precipitation 5.90 2.36  
Year to date precipitation 34.57 25.63  
Snow  
Snow 0.00 in 0.00 in 0.00 in (2002)
Month to date snowfall 0.0 0.0  
Since 1 June snowfall 0.0 0.0  
Since 1 July snowfall 0.0 0.0  
Snow Depth 0.00 in    
Sea Level Pressure  
Sea Level Pressure 30.17 in    
Wind  
Wind Speed 6 mph (North)    
Max Wind Speed 20 mph    
Max Gust Speed 26 mph    
Visibility 10 miles    
Events      
T = Trace of Precipitation, MM = Missing Value Source: NWS Daily Summary

Daily Weather History Graph

Daily Weather History Graph

Search for Another Location

Airport or City:

Astronomy

Aug. 24, 2019 Rise Set
Actual Time 5:47 AM EDT 7:26 PM EDT
Civil Twilight 5:16 AM EDT 7:57 PM EDT
Nautical Twilight 4:39 AM EDT 8:35 PM EDT
Astronomical Twilight 3:58 AM EDT 9:15 PM EDT
Moon No Moon Rise 2:45 PM EDT (8/24)
Length of Visible Light 14h 40m
Length of Day
13h 38m
Last Quarter, 39% of the Moon is Illuminated
Aug 24
Last Quarter
Aug 30
New
Sep 5
First Quarter
Sep 14
Full
Sep 21
Last Quarter

Hourly Weather History & Observations

Time (EDT) Temp. Dew Point Humidity Pressure Visibility Wind Dir Wind Speed Gust Speed Precip Events Conditions
12:53 AM 59.0 °F 50.0 °F 72% 29.99 in 10.0 mi WNW 6.9 mph - N/A   Clear
1:53 AM 55.9 °F 50.0 °F 80% 30.00 in 10.0 mi WSW 3.5 mph - N/A   Clear
2:53 AM 52.0 °F 50.0 °F 93% 30.02 in 10.0 mi West 3.5 mph - N/A   Clear
3:53 AM 54.0 °F 50.0 °F 86% 30.04 in 10.0 mi SW 3.5 mph - N/A   Clear
4:53 AM 54.0 °F 51.1 °F 90% 30.06 in 10.0 mi Calm Calm - N/A   Partly Cloudy
5:53 AM 53.1 °F 51.1 °F 93% 30.08 in 10.0 mi Calm Calm - N/A   Partly Cloudy
6:53 AM 55.9 °F 52.0 °F 87% 30.11 in 10.0 mi WNW 3.5 mph - N/A   Partly Cloudy
7:53 AM 62.1 °F 54.0 °F 75% 30.13 in 10.0 mi NNW 8.1 mph - N/A   Scattered Clouds
8:53 AM 64.0 °F 53.1 °F 67% 30.15 in 10.0 mi North 15.0 mph 23.0 mph N/A   Scattered Clouds
9:53 AM 64.9 °F 53.1 °F 65% 30.16 in 10.0 mi North 16.1 mph 26.5 mph N/A   Mostly Cloudy
10:53 AM 69.1 °F 55.0 °F 61% 30.17 in 10.0 mi North 12.7 mph - N/A   Mostly Cloudy
11:53 AM 66.9 °F 53.1 °F 61% 30.18 in 10.0 mi North 15.0 mph - N/A   Overcast
12:53 PM 66.9 °F 54.0 °F 63% 30.19 in 10.0 mi NE 10.4 mph - N/A   Overcast
1:53 PM 68.0 °F 54.0 °F 61% 30.20 in 10.0 mi North 11.5 mph - N/A   Overcast
2:53 PM 68.0 °F 54.0 °F 61% 30.21 in 10.0 mi North 6.9 mph - N/A   Overcast
3:53 PM 69.1 °F 54.0 °F 58% 30.22 in 10.0 mi NNE 13.8 mph - N/A   Overcast
4:53 PM 69.1 °F 54.0 °F 58% 30.23 in 10.0 mi North 10.4 mph - N/A   Mostly Cloudy
5:53 PM 68.0 °F 54.0 °F 61% 30.24 in 10.0 mi North 9.2 mph - N/A   Mostly Cloudy
6:53 PM 66.9 °F 54.0 °F 63% 30.26 in 10.0 mi North 6.9 mph - N/A   Partly Cloudy
7:53 PM 64.0 °F 54.0 °F 70% 30.27 in 10.0 mi NNE 4.6 mph - N/A   Partly Cloudy
8:53 PM 57.0 °F 55.0 °F 93% 30.30 in 10.0 mi Calm Calm - N/A   Partly Cloudy
9:53 PM 57.9 °F 55.0 °F 90% 30.31 in 10.0 mi Calm Calm - N/A   Mostly Cloudy
10:53 PM 55.0 °F 54.0 °F 96% 30.33 in 10.0 mi Calm Calm - N/A   Clear
11:53 PM 54.0 °F 53.1 °F 97% 30.34 in 10.0 mi Calm Calm - N/A   Clear